Back to catalog

NOAA 16 DEB

AliveSSO
NORAD 41357·DEBRIS·🇺🇸 United States

Launched Sep 21, 2000 from Vandenberg Space Force Base

Loading…

Next Passes (next 24 hours)

TLE

FreshSource: Space-Track

Epoch: Sep 14, 2026, 04:40 UTC

1 41357U 00055JA  26257.19503806  .00001443  00000-0  86688-3 0  9995
2 41357  98.8582 244.0098 0069410 176.4682 183.6991 14.07250775542469

Track NOAA 16 DEB in real time with AllMySat

Download on the App Store